Location: Newark
(47.3150°N, 5.1150°E)
Time: 14:10:27
(UTC+00:00)

AO-7 - Pass Details

Date: 23 December 2019
Orbit: 1440 x 1459 km, 101.8° (Epoch: 17 January)

Event Time Altitude Azimuth Distance (km) Brightness Sun altitude
Rises 05:54:25 0° 15° (NNE) 4,565 ? -14.4°
Reaches altitude 10° 05:57:52 10° 2° (N) 3,586 ? -13.9°
Maximum altitude 06:03:56 23° 315° (NW) 2,696 ? -12.9°
Enters shadow 06:09:32 11° 270° (W) 3,466 ? -12.0°
